SCP
0 0 0 0 0 0 0 0 0 0 0 0 0 0 0 0 1 1 1 1 1 1 1 0 0 0 0 0 0 0 0 0 0 0 0 0 0 0 0 0 0 0 0 0
0 0 0 0 0 0 0 0 0 0 0 0 0 0 0 1 1 1 1 1 1 1 1 0 0 0 0 0 0 0 0 0 0 0 0 0 0 0 0 0 0 0 0 0
0 0 0 0 0 0 0 0 0 0 0 0 0 1 1 1 1 1 1 1 1 1 1 1 0 0 0 0 0 0 0 0 0 0 0 0 0 0 0 0 0 0 0 0
0 0 0 0 0 0 0 0 0 0 0 0 0 1 1 1 1 1 1 1 1 1 1 1 0 0 0 0 0 0 0 0 0 0 0 0 0 0 0 0 0 0 0 0
0 0 0 0 0 0 0 0 0 0 0 0 1 1 1 1 1 1 1 1 1 1 1 1 0 0 0 0 0 0 0 0 0 0 0 0 0 0 0 0 0 0 0 0
0 0 0 0 0 0 0 0 0 0 0 0 1 1 1 1 1 1 1 1 1 1 1 1 1 0 0 0 0 0 0 0 0 0 0 0 0 0 0 0 0 0 0 0
0 0 0 0 0 0 0 0 0 1 1 1 1 1 1 1 1 1 1 1 1 1 1 1 1 1 0 0 0 0 0 0 0 0 0 0 0 0 0 0 0 0 0 0
0 0 0 0 0 0 1 1 1 1 1 1 1 1 1 1 0 0 0 1 1 1 1 1 1 1 0 0 0 0 0 0 0 0 0 0 0 0 0 0 0 0 0 0
0 0 0 0 0 1 1 1 1 1 1 1 1 0 0 0 0 0 0 1 1 1 1 1 1 1 0 0 0 0 0 0 0 0 0 0 0 0 0 0 0 0 0 0
0 0 0 0 0 0 1 1 1 1 0 0 0 0 0 0 0 0 0 0 1 1 1 1 0 0 0 0 0 0 0 0 0 0 0 0 0 0 0 0 0 0 0 0
0 0 0 0 0 0 0 0 0 0 0 0 0 0 0 0 0 0 0 0 0 0 0 0 0 0 0 0 0 0 0 0 0 0 0 0 0 0 0 0 0 0 0 0
0 0 0 0 0 0 0 0 0 0 0 0 0 0 0 0 0 0 0 0 0 0 0 0 0 0 0 0 0 0 0 0 0 0 0 0 0 0 0 0 0 0 0 0
0 0 0 0 0 0 0 0 0 0 0 0 0 0 0 0 0 0 0 0 0 0 0 0 0 0 0 0 0 0 0 0 0 0 0 0 0 0 0 0 0 0 0 0
0 0 0 0 0 0 0 0 0 0 0 0 0 0 0 0 0 0 0 0 0 0 0 0 0 0 0 0 0 0 0 0 0 0 0 0 0 0 0 0 0 0 0 0
0 0 0 0 0 0 0 0 0 0 0 0 0 0 0 0 0 0 0 0 0 0 0 0 0 0 0 0 0 0 0 0 0 0 0 0 0 0 0 0 0 0 0 0
0 0 0 0 0 0 0 0 0 0 0 0 0 0 0 0 0 0 0 0 0 0 0 0 0 0 0 0 0 0 0 0 0 0 0 0 0 0 0 0 0 0 0 0
0 0 0 0 0 0 0 0 0 0 0 0 0 0 0 0 0 0 0 0 0 0 0 0 0 0 0 0 0 0 0 0 0 0 0 0 0 0 0 0 0 0 0 0
0 0 0 0 0 0 0 0 0 0 0 0 0 0 0 0 0 0 0 0 0 0 0 0 0 0 0 0 0 0 0 0 0 0 0 0 0 0 0 0 0 0 0 0
0 0 0 0 0 0 0 0 0 0 0 0 0 0 0 0 0 0 0 0 0 0 0 0 0 0 0 0 -0 -0 0 0 0 0 0 0 0 0 0 0 0 0 0 0
0 0 0 0 0 0 0 0 0 0 0 0 0 0 0 0 0 0 0 0 0 0 0 0 0 0 0 -0 -0 -0 0 0 0 0 0 0 0 0 0 0 0 0 0 0
0 0 0 0 0 0 0 0 0 0 0 0 0 0 0 0 0 0 0 0 0 0 0 0 0 0 0 -0 -0 0 0 0 0 0 0 0 0 0 0 0 0 0 0 0
0 0 0 0 0 0 0 0 0 0 0 -0 -0 -0 -0 0 0 0 0 0 0 0 0 -0 -0 0 0 0 0 0 0 0 0 0 0 0 0 0 0 0 0 0 0 0
0 0 0 0 0 0 0 0 0 0 -0 -0 -0 -0 -0 -0 -0 0 0 0 0 0 -0 -0 -0 0 0 0 0 0 0 0 0 0 0 0 0 0 0 0 0 0 0 0
0 0 0 0 0 0 0 0 -0 -0 -0 -0 -0 -0 -0 -0 0 0 0 0 0 0 0 0 0 0 0 0 0 0 0 0 0 0 0 0 0 0 0 0 0 0 0 0
0 0 0 0 0 0 0 0 -0 -0 -0 -0 -0 -0 0 0 0 0 0 0 0 0 0 0 0 0 0 0 0 0 0 0 0 0 0 0 0 0 0 0 0 0 0 0
0 0 0 0 0 0 0 0 0 -0 -0 0 0 0 0 0 0 0 0 0 0 0 0 0 0 0 0 0 0 0 0 0 0 0 0 0 0 0 0 0 0 0 0 0
0 0 0 0 0 0 0 0 0 -0 0 0 0 0 0 0 0 0 0 0 0 0 0 0 0 0 0 0 0 0 0 0 0 0 0 0 0 0 0 0 0 0 0 0
Wind_Speed
9 5 8 11 13 14 14 11 9 7 6 4 4 5 6 6 7 8 9 9 8 8 8 8 7 7 6 6 6 6 6 6 6 6 6 5 5 5 5 5 5 5 5 5
9 8 10 10 11 12 13 11 10 8 4 3 5 5 6 6 7 8 8 8 8 8 8 8 7 7 7 6 6 6 6 6 6 6 6 6 5 5 5 5 5 5 5 5
10 9 10 13 12 11 11 9 9 9 3 5 5 5 5 5 6 6 7 7 7 7 7 7 7 7 7 7 7 7 6 6 6 6 6 6 6 6 6 6 6 6 6 6
8 9 14 4 2 6 7 6 4 1 3 3 4 5 5 4 5 5 6 5 5 5 6 6 6 7 7 7 7 7 7 6 7 7 7 7 7 7 7 6 7 7 8 7
9 12 11 5 5 6 7 6 4 3 4 5 6 7 6 4 4 4 4 4 4 4 6 5 6 7 7 7 7 7 7 6 7 7 8 8 8 8 7 8 8 8 7 8
10 13 12 6 7 3 5 7 4 4 5 6 6 5 5 5 4 4 4 4 4 5 6 6 6 7 7 7 7 7 7 7 7 7 8 9 9 9 8 9 9 9 9 8
12 12 6 5 5 6 9 3 5 3 3 4 2 4 6 5 4 4 4 4 5 5 5 5 5 6 7 7 6 7 8 8 9 8 9 9 10 9 9 10 10 10 10 9
11 12 7 5 5 4 3 5 4 3 2 2 4 5 5 5 5 5 5 5 6 6 6 5 6 7 8 7 7 8 9 10 10 9 9 9 10 10 10 11 11 10 10 10
3 0 6 3 3 4 2 2 2 2 3 4 4 4 5 5 5 5 5 5 5 7 7 6 6 7 9 8 9 10 10 10 10 10 9 9 10 10 9 8 8 8 8 9
2 4 4 4 3 3 3 3 2 2 2 3 4 5 5 5 5 6 6 6 6 8 8 8 7 8 9 9 10 11 11 10 10 10 10 9 7 7 7 7 7 8 8 9
3 4 4 4 4 4 4 4 3 3 3 3 5 5 5 5 5 5 5 6 7 8 9 9 9 9 9 9 11 12 12 11 11 10 10 10 10 9 8 8 6 6 7 7
1 4 2 4 3 3 4 4 4 3 3 3 4 5 6 5 5 6 6 7 8 9 10 10 10 10 9 9 10 12 12 11 9 9 9 10 11 12 18 14 17 16 13 10
2 2 3 3 3 3 3 4 4 4 3 3 4 5 6 6 6 7 8 8 9 9 10 10 10 10 10 9 11 11 11 11 9 9 9 10 10 11 11 13 18 18 16 15
2 3 3 3 3 4 4 4 5 4 4 4 5 6 7 8 8 9 9 9 10 11 11 11 11 11 10 10 12 13 12 12 10 8 9 9 9 10 10 11 11 10 11 13
2 1 3 4 4 4 5 5 6 5 6 6 6 7 8 9 10 10 10 11 12 12 11 11 12 11 10 11 12 13 11 9 9 8 8 8 9 9 10 11 10 10 10 9
3 4 5 5 5 5 5 6 6 6 6 7 8 9 10 11 11 11 10 11 12 12 11 11 11 11 10 11 12 10 10 12 10 9 9 9 9 9 9 9 9 9 8 8
6 5 6 6 6 6 6 6 6 7 8 9 10 11 12 13 12 12 11 10 11 11 10 10 11 11 11 11 11 9 9 10 11 9 9 9 8 8 8 8 8 7 7 6
4 5 5 6 7 7 8 8 8 9 9 10 11 11 12 12 12 12 11 12 12 12 11 10 11 11 10 10 9 9 9 8 8 9 8 8 8 7 7 7 8 8 8 7
7 8 8 8 9 9 9 10 10 10 11 10 11 12 12 12 12 12 12 12 12 11 9 10 10 11 11 10 8 7 9 9 9 8 8 8 7 7 7 7 7 7 7 6
9 10 11 12 12 11 11 12 12 11 11 11 12 13 13 12 12 12 11 10 7 8 9 10 10 10 11 9 6 8 9 9 9 9 8 7 7 7 7 7 7 6 6 5
11 12 13 13 13 12 12 12 12 12 12 12 12 13 13 11 11 10 10 10 8 8 9 8 7 8 8 7 5 7 8 8 8 8 7 7 6 6 6 6 6 5 5 4
12 12 13 14 13 12 11 12 12 13 12 12 12 12 12 11 11 10 9 8 8 5 6 7 7 8 7 7 6 7 7 7 7 6 6 6 5 5 6 6 6 5 4 4
11 12 13 13 14 13 13 12 12 12 12 12 12 11 11 9 8 8 8 7 7 5 5 7 9 8 5 5 6 6 7 6 6 6 5 5 5 5 5 6 5 5 4 3
13 13 13 13 13 14 13 12 11 10 11 11 10 9 9 8 7 8 8 8 7 6 7 9 8 6 4 5 6 6 6 5 5 5 5 5 4 5 5 5 4 4 4 4
13 13 13 13 12 11 12 12 12 11 11 9 10 9 7 6 7 8 8 9 8 6 8 8 6 3 4 4 5 5 5 4 4 4 5 4 4 4 4 4 4 3 3 3
11 10 9 9 9 8 9 9 8 8 8 8 8 7 7 7 8 7 7 9 9 6 6 6 6 5 4 4 5 5 5 6 5 4 4 4 4 4 3 3 4 3 3 3
11 10 8 9 8 8 7 7 7 8 7 8 8 7 7 7 6 6 7 6 6 5 5 5 4 4 4 4 4 4 4 4 4 4 4 4 3 3 3 4 3 3 3 3
Wind_Direction
249 233 207 208 203 204 218 238 244 228 226 182 165 161 155 154 154 157 157 159 159 158 159 163 163 165 166 165 165 166 169 169 169 172 166 166 165 167 167 163 163 159 157 157
221 220 218 218 211 209 216 228 239 240 217 105 123 142 147 153 156 159 160 160 161 160 159 163 166 168 163 163 163 162 160 155 151 150 147 148 146 144 145 143 140 135 138 137
217 204 208 216 214 214 213 224 240 239 184 132 137 133 140 149 155 154 152 152 158 161 159 161 166 167 163 162 159 156 155 150 142 138 136 132 134 129 128 126 122 118 114 112
220 200 224 188 161 227 221 216 229 202 127 132 120 121 122 128 139 137 137 144 151 157 152 156 160 159 156 152 155 156 153 146 140 135 131 127 123 117 113 108 104 99 96 97
227 222 221 168 172 198 208 203 202 184 147 137 132 140 125 105 110 120 129 138 142 144 142 143 152 154 152 150 150 148 142 138 136 133 130 126 121 117 112 108 101 96 94 95
228 238 231 184 140 179 223 204 157 165 158 155 177 202 123 109 98 101 109 113 122 127 132 137 144 149 150 149 147 142 138 134 128 126 124 121 117 112 108 104 100 95 88 85
228 233 231 96 134 188 222 165 122 151 161 177 178 40 91 107 98 96 98 103 111 113 115 119 130 136 136 132 128 122 120 118 114 114 116 115 111 109 108 105 101 96 91 83
228 232 211 108 175 212 56 78 114 127 135 119 99 103 113 110 110 110 109 110 114 111 104 106 120 128 123 117 116 115 114 111 109 109 109 110 111 110 111 111 107 102 98 90
250 194 74 91 69 55 55 92 101 109 108 129 135 129 124 120 113 110 110 110 112 112 104 98 107 120 117 113 116 115 110 107 106 103 100 104 110 114 113 112 111 110 107 103
169 125 113 101 85 73 68 74 72 99 132 141 141 141 137 128 118 115 117 117 114 109 103 95 93 98 105 115 119 116 111 108 105 102 99 94 92 97 103 107 111 113 113 112
182 133 134 113 79 76 79 79 80 92 112 134 144 142 135 127 122 119 121 121 116 112 108 103 99 97 102 112 118 115 112 109 106 101 98 89 77 63 75 67 70 101 112 116
167 135 145 112 89 82 82 78 79 89 98 114 132 134 131 124 120 119 115 112 108 108 109 108 105 102 103 109 115 117 114 111 109 109 106 104 100 81 57 65 62 60 62 82
56 83 88 107 100 88 81 78 78 86 99 110 117 128 128 124 120 116 113 111 111 110 109 108 106 103 103 107 110 110 112 113 113 114 114 114 114 112 105 81 66 62 64 76
123 133 131 118 100 94 91 86 86 92 100 110 117 121 126 125 122 117 115 113 113 110 107 107 106 104 108 112 112 112 112 112 115 117 119 119 120 121 120 118 112 97 79 79
149 146 134 116 106 104 107 106 106 101 100 101 109 116 120 121 117 113 112 114 112 110 110 112 109 109 114 115 115 115 115 117 115 115 117 117 119 119 117 116 114 116 118 109
139 132 133 129 123 120 117 113 110 105 104 106 106 109 110 110 108 108 111 117 116 114 114 114 111 114 117 117 116 113 111 113 118 120 119 119 119 119 120 122 123 124 125 129
161 157 147 141 134 124 114 109 111 113 112 111 110 109 110 109 107 107 108 109 108 109 111 112 114 118 119 120 120 118 119 119 122 123 122 122 122 124 126 127 125 123 114 93
159 149 145 137 132 122 114 110 111 112 113 114 115 115 114 112 110 109 109 108 106 103 106 112 117 120 120 120 119 120 124 129 127 120 120 122 124 127 126 123 123 121 122 126
129 127 122 120 118 115 112 110 108 108 111 113 113 111 109 109 111 111 110 109 108 107 107 110 117 123 121 120 124 128 127 125 122 120 120 125 134 130 130 131 131 131 132 134
124 121 118 113 111 111 109 108 108 108 109 111 112 112 113 114 114 114 111 105 100 109 121 125 131 125 128 134 144 131 129 130 129 132 137 143 136 136 138 135 134 134 133 131
122 119 116 113 110 108 109 112 112 112 113 115 116 116 116 117 119 120 118 110 105 115 125 132 133 129 132 134 156 132 133 133 135 139 142 141 141 142 139 137 137 137 137 137
119 116 115 115 114 114 114 115 116 116 115 115 116 118 119 119 117 111 102 106 118 127 137 129 122 111 125 146 144 134 135 136 138 140 142 144 147 149 149 148 147 146 144 144
117 116 117 118 118 116 115 115 116 115 114 115 117 119 119 118 121 121 115 113 123 129 124 106 105 116 142 152 130 132 135 138 142 147 149 151 154 156 156 159 155 154 156 161
118 118 119 119 118 117 115 115 114 114 116 117 117 118 121 120 117 109 107 106 101 113 103 101 117 127 167 140 134 135 135 138 143 150 152 153 156 157 160 164 164 164 168 181
117 117 118 120 119 117 118 120 119 122 122 117 117 118 115 109 110 108 111 113 117 121 114 118 131 161 171 132 134 137 142 141 147 155 156 158 163 164 171 175 173 178 184 190
117 115 115 115 115 121 125 126 125 125 122 119 116 111 107 106 110 115 120 123 123 124 125 134 146 175 154 137 141 150 148 147 159 174 165 165 171 179 186 184 188 201 203 208
115 115 117 116 117 119 121 122 122 121 121 120 117 116 117 118 121 124 127 131 137 140 136 142 150 157 149 146 147 153 155 159 169 175 174 180 185 191 192 205 215 214 220 217